Pineville, MO (64856)

6:16 AM CDT on August 05, 2015 (GMT -0500)
Berrydale Place | | Change Station
CLOSE
Current Station
Personal Weather Station
Location: Bella Vista, AR
Elevation: 1220 ft
Nearby Weather Stations
Active Advisory: Severe Thunderstorm Watch

Elev 1220 ft 36.46 °N, 94.31 °W | Updated 28 seconds ago

Mostly Cloudy
Mostly Cloudy
71.1 °F
Feels Like 74 °F
N
0.0
Wind Variable Wind from SSE
Gusts 0.0 mph

Today
High -- | Low -- °F
--% Chance of Precip.
Yesterday
High -- | Low -- °F
Precip. -- in
6:26 AM 8:19 PM
Waning Gibbous, 68% visible
Pressure 29.95 in
Visibility 10.0 miles
Clouds Mostly Cloudy 10000 ft
Heat Index 74 °F
Dew Point 61 °F
Humidity 70%
Rainfall 0.00 in
Snow Depth Not available.
UV 0.0 out of 12
Pollen 4.60 out of 12
Air Quality Not available.
Flu Activity Not available.
METAR KVBT 051055Z AUTO 14004KT 10SM BKN100 22/19 A2995 RMK AO1

More Conditions Fewer Conditions

Pressure 29.95 in
Visibility 10.0 miles
Clouds Mostly Cloudy 10000 ft
Heat Index 74 °F
Dew Point 61 °F
Humidity 70%
Rainfall 0.00 in
Snow Depth Not available.
UV 0.0 out of 12
Pollen 4.60 out of 12
Air Quality Not available.
Flu Activity Not available.
METAR KVBT 051055Z AUTO 14004KT 10SM BKN100 22/19 A2995 RMK AO1

More Conditions Fewer Conditions

10-Day Weather Forecast

×

Almanac

Astronomy

Aug. 05, 2015 Rise Set
Actual Time
Civil Twilight
Nautical Twilight
Astronomical Twilight
Moon
Length of Visible Light
Length of Day
Tomorrow will be .
, % of the Moon is Illuminated

Today's Extremes

State Highs State Lows

Community

WunderPhotos

Upload Photos

1,844,125 photos uploaded!

WunderBlogs® & News

Nearby

Air Quality

  Air Quality AQ Index Pollutant
Not available.

Snow Depth

Station Depth Elevation

Earthquake Activity

City Distance Mag. Time & Date
Minimum magnitude displayed is 2.5.

Coastal Water Temperatures

Place Temperature

Stations

Nearby Weather Stations

Station Location Temp. Windchill Dew Point Humidity Wind Precip. Elev Updated Type
                   
Severe Thunderstorm Watch
Statement as of 6:03 AM CDT on August 05, 2015

Severe Thunderstorm Watch 472 remains in effect until 1100 am CDT

MO
. Missouri counties included are

Barton Jasper McDonald
Newton Vernon